Clear Lake, IA

3:07 PM CDT on September 29, 2016 (GMT -0500)
Mason City Municipal

Weather History for KMCW - January, 2014

Change the Weather History Date:

Friday, January 24, 2014

  Actual Average Record
Temperature  
Mean Temperature 18 °F 16 °F  
Max Temperature 35 °F 25 °F 59 °F (1981)
Min Temperature 1 °F 7 °F -29 °F (1922)
Degree Days  
Heating Degree Days 47 49  
Month to date heating degree days 1324 1176  
Since 1 July heating degree days 4568 4265  
Cooling Degree Days 0 0  
Month to date cooling degree days 0 0  
Year to date cooling degree days 0 0  
Moisture  
Dew Point 19 °F    
Average Humidity 79    
Maximum Humidity 100    
Minimum Humidity 57    
Precipitation  
Precipitation 0.02 in 0.03 in 0.87 in (1967)
Month to date precipitation 0.23 0.62  
Year to date precipitation 0.23 0.62  
Snow  
Snow 0.50 in 0.30 in 4.00 in (1929)
Month to date snowfall 5.1 8.2  
Since 1 July snowfall 21.5 22.2  
Snow Depth 4.00 in    
Sea Level Pressure  
Sea Level Pressure 29.78 in    
Wind  
Wind Speed 22 mph (WSW)    
Max Wind Speed 35 mph    
Max Gust Speed 42 mph    
Visibility 8 miles    
Events Rain , Snow    
T = Trace of Precipitation, MM = Missing Value Source: NWS Daily Summary

Daily Weather History Graph

Daily Weather History Graph

Search for Another Location

Airport or City:

Trip Planner

Search our weather history database for the weather conditions in past years. The results will help you decide how hot, cold, wet, or windy it might be!

Date:

Astronomy

Jan. 24, 2014 Rise Set
Actual Time 7:36 AM CST 5:15 PM CST
Civil Twilight 7:05 AM CST 5:45 PM CST
Nautical Twilight 6:30 AM CST 6:20 PM CST
Astronomical Twilight 5:57 AM CST 6:54 PM CST
Moon 1:01 AM CST (1/24) 11:35 AM CST (1/24)
Length of Visible Light 10h 40m
Length of Day
9h 38m
Last Quarter, 44% of the Moon is Illuminated
Jan 24
Last Quarter
Jan 30
New
Feb 6
First Quarter
Feb 14
Full
Feb 22
Last Quarter

Hourly Weather History & Observations

Time (CST) Temp. Windchill Dew Point Humidity Pressure Visibility Wind Dir Wind Speed Gust Speed Precip Events Conditions
12:53 AM 3.0 °F -16.7 °F -6.0 °F 66% 30.35 in 10.0 mi SSW 17.3 mph - N/A   Clear
1:53 AM 5.0 °F -15.7 °F -6.0 °F 61% 30.28 in 10.0 mi SSW 20.7 mph - N/A   Clear
2:53 AM 9.0 °F -12.6 °F -4.0 °F 56% 30.21 in 10.0 mi SW 26.5 mph 38.0 mph N/A   Clear
3:53 AM 10.0 °F -12.2 °F -2.0 °F 58% 30.12 in 10.0 mi SSW 29.9 mph 42.6 mph N/A   Clear
4:53 AM 10.9 °F -9.2 °F -0.0 °F 61% 30.09 in 10.0 mi SW 24.2 mph 34.5 mph N/A   Clear
5:53 AM 12.9 °F -6.5 °F 1.9 °F 62% 30.03 in 10.0 mi SW 24.2 mph 33.4 mph N/A   Mostly Cloudy
6:53 AM 15.1 °F -2.9 °F 3.9 °F 61% 29.97 in 10.0 mi SW 21.9 mph 28.8 mph N/A   Overcast
7:53 AM 16.0 °F -1.3 °F 6.1 °F 65% 29.95 in 10.0 mi WSW 20.7 mph 31.1 mph N/A   Overcast
8:53 AM 17.1 °F -0.3 °F 7.0 °F 65% 29.92 in 10.0 mi WSW 21.9 mph 33.4 mph N/A   Overcast
9:53 AM 18.0 °F 0.2 °F 8.1 °F 65% 29.89 in 10.0 mi WSW 24.2 mph 32.2 mph N/A   Mostly Cloudy
10:53 AM 21.9 °F 5.8 °F 12.0 °F 66% 29.86 in 10.0 mi WSW 23.0 mph 33.4 mph N/A   Clear
11:53 AM 26.1 °F 13.1 °F 16.0 °F 66% 29.81 in 10.0 mi WSW 17.3 mph 27.6 mph N/A   Clear
12:53 PM 28.9 °F 16.1 °F 19.0 °F 67% 29.76 in 10.0 mi WSW 19.6 mph 27.6 mph N/A   Clear
1:53 PM 30.9 °F 19.1 °F 21.9 °F 69% 29.70 in 10.0 mi WSW 18.4 mph 27.6 mph N/A   Clear
2:53 PM 34.0 °F 23.4 °F 26.1 °F 73% 29.66 in 10.0 mi West 17.3 mph - N/A   Scattered Clouds
3:53 PM 34.0 °F 22.4 °F 28.0 °F 79% 29.65 in 10.0 mi West 20.7 mph - N/A   Partly Cloudy
4:53 PM 35.1 °F 24.1 °F 28.9 °F 78% 29.63 in 10.0 mi West 19.6 mph 27.6 mph N/A   Overcast
5:53 PM 35.1 °F 24.1 °F 28.9 °F 78% 29.61 in 10.0 mi WSW 19.6 mph - 0.00 in   Overcast
6:12 PM 34.0 °F 23.4 °F 30.0 °F 85% 29.58 in 2.5 mi West 17.3 mph - 0.00 in Snow Light Snow
6:24 PM 34.0 °F 22.4 °F 30.9 °F 89% 29.57 in 1.8 mi West 20.7 mph 26.5 mph 0.00 in Snow Light Snow
6:51 PM 33.8 °F 22.5 °F 32.0 °F 93% 29.56 in 1.8 mi West 19.6 mph - 0.01 in Snow Light Snow
6:53 PM 33.1 °F 21.2 °F 32.0 °F 96% 29.60 in 2.0 mi West 20.7 mph - 0.01 in Snow Light Snow
7:04 PM 33.1 °F 21.9 °F 32.0 °F 96% 29.56 in 4.0 mi West 18.4 mph 27.6 mph 0.00 in Snow Light Snow
7:12 PM 33.1 °F 21.9 °F 32.0 °F 96% 29.56 in 4.0 mi West 18.4 mph - 0.00 in   Overcast
7:53 PM 34.0 °F 22.4 °F 33.1 °F 96% 29.58 in 4.0 mi West 20.7 mph 29.9 mph 0.00 in   Overcast
8:53 PM 34.0 °F 23.0 °F 33.1 °F 96% 29.57 in 6.0 mi WNW 18.4 mph - N/A   Overcast
9:53 PM 34.0 °F 21.3 °F 32.0 °F 92% 29.57 in 7.0 mi NW 25.3 mph 33.4 mph 0.00 in Rain Light Rain
10:48 PM 33.8 °F 21.3 °F 30.2 °F 87% 29.56 in 10.0 mi NW 24.2 mph 35.7 mph 0.01 in   Overcast
10:53 PM 34.0 °F 21.3 °F 30.0 °F 85% 29.60 in 10.0 mi NW 25.3 mph 33.4 mph 0.01 in   Overcast
11:53 PM 32.0 °F 20.1 °F 27.0 °F 82% 29.62 in 10.0 mi NW 19.6 mph - N/A   Clear